Hourly Data Report for September 26, 2017

All times are specified in Local Standard Time (LST). Add 1 hour to adjust for Daylight Saving Time where and when it is observed.

EAST POINT (AUT)
PRINCE EDWARD ISLAND

46°27'36.000" N
61°59'18.000" W
7.70 m
8300418
71412
WEP

Download Data

Hourly Data (September 2017)
Hourly Data Report for September 26, 2017
Temp Definition
°C
Dew Point Temp Definition
°C
Rel Hum Definition
%
Wind Dir Definition
10's deg

Wind Spd Definition
km/h
Visibility Definition
km
Stn Press Definition
kPa
Hmdx Definition


Wind Chill Definition


Weather Definition


TIME
00:00 18.4 16.4 88 19 27   101.29     LegendNANA
01:00 18.3 16.4 89 19 28   101.24     LegendNANA
02:00 18.0 16.4 91 20 25   101.18     LegendNANA
03:00 17.7 16.3 92 20 24   101.12     LegendNANA
04:00 18.6 16.6 88 21 21   101.07     LegendNANA
05:00 19.2 16.9 87 21 24   101.05     LegendNANA
06:00 19.8 17.3 86 22 23   101.06     LegendNANA
07:00 20.6 17.8 84 23 26   101.05 26   LegendNANA
08:00 22.3 18.4 79 23 21   101.03 29   LegendNANA
09:00 23.7 18.8 74 24 19   101.02 30   LegendNANA
10:00 25.9 18.6 64 26 20   101.00 32   LegendNANA
11:00 25.9 17.4 60 28 29   100.99 31   LegendNANA
12:00 26.0 17.7 60 27 35   101.01 32   LegendNANA
13:00 25.1 17.8 64 28 35   101.03 31   LegendNANA
14:00 21.0 17.1 78 31 26   101.12 26   LegendNANA
15:00 18.8 15.4 81 33 29   101.23     LegendNANA
16:00 17.7 14.7 83 1 23   101.26     LegendNANA
17:00 16.7 14.1 85 3 26   101.38     LegendNANA
18:00 16.0 13.3 84 3 35   101.47     LegendNANA
19:00 15.4 12.4 83 2 32   101.56     LegendNANA
20:00 15.4 12.7 84 2 32   101.62     LegendNANA
21:00 14.9 11.4 80 3 31   101.67     LegendNANA
22:00 14.5 10.5 77 3 31   101.72     LegendNANA
23:00 14.2 9.9 75 3 28   101.77     LegendNANA

Notes on Data Quality.

Legend

  • E = Estimated
  • M = Missing
  • NA = Not Available
  • ‡ = Partner data that is not subject to review by the National Climate Archives
Date modified: